EW7099 Weather Reports


time (UTC)temp
C
wind
direction
speed
KPH
gust
KPH
rain 1hr
cm
rain 24hr
cm
rain mn
cm
humidity
%
barometer
mb
20260507184526 33 225 16.1 29.0 0.00 0.00 0.00 55 1007.9
20260507183025 33 186 16.1 32.2 0.00 0.00 0.00 56 1008.3
20260507181520 33 207 19.3 32.2 0.00 0.00 0.00 61 1008.5
20260507180019 33 180 22.5 33.8 0.00 0.00 0.00 61 1008.5
20260507174539 33 175 11.3 32.2 0.00 0.00 0.00 61 1008.6
20260507173023 32 195 17.7 29.0 0.00 0.00 0.00 63 1008.7
20260507171518 32 155 20.9 33.8 0.00 0.00 0.00 62 1008.8
20260507170013 33 176 14.5 29.0 0.00 0.00 0.00 60 1008.8
20260507164512 33 219 16.1 29.0 0.00 0.00 0.00 59 1008.9
20260507163008 32 212 14.5 22.5 0.00 0.00 0.00 62 1009.1
20260507161503 32 161 14.5 29.0 0.00 0.00 0.00 63 1009.3
20260507160118 32 221 16.1 24.1 0.00 0.00 0.00 64 1009.2
20260507154557 32 111 9.7 16.1 0.00 0.00 0.00 64 1009.1
20260507153052 31 181 6.4 14.5 0.00 0.00 0.00 62 1009.1
20260507151519 30 291 4.8 14.5 0.00 0.00 0.00 65 1009.2
20260507150018 30 158 9.7 14.5 0.00 0.00 0.00 67 1009.2
20260507144513 29 320 9.7 16.1 0.00 0.00 0.00 70 1009.1
20260507143012 28 254 4.8 14.5 0.00 0.00 0.00 72 1008.9
20260507141511 28 277 4.8 16.1 0.00 0.00 0.00 74 1008.7
20260507140026 27 282 6.4 12.9 0.00 0.00 0.00 78 1008.8
20260507134509 26 271 0.0 1.6 0.00 0.00 0.00 80 1008.7
20260507133111 25 274 1.6 6.4 0.00 0.00 0.00 79 1008.5
20260507131507 25 255 0.0 6.4 0.00 0.00 0.00 80 1008.4
20260507130007 25 302 0.0 8.0 0.00 0.00 0.00 85 1008.5
20260507124503 24 316 9.7 11.3 0.00 0.00 0.00 86 1008.4
20260507123106 23 298 3.2 9.7 0.00 0.00 0.00 86 1008.8
20260507121601 24 314 0.0 8.0 0.00 0.00 0.00 86 1009.1
20260507120057 24 317 4.8 11.3 0.00 0.00 0.00 85 1009.2
20260507114555 24 314 6.4 12.9 0.00 0.00 0.00 85 1009.1
20260507113126 24 317 9.7 12.9 0.00 0.00 0.00 85 1009.2
20260507111549 24 329 4.8 9.7 0.00 0.00 0.00 85 1009.4
20260507110048 25 335 0.0 0.0 0.00 0.00 0.00 86 1009.2
20260507104557 25 335 0.0 0.0 0.00 0.00 0.00 86 1009.0
20260507103044 25 272 0.0 0.0 0.00 0.00 0.00 86 1008.6
20260507101543 25 272 0.0 0.0 0.00 0.00 0.00 87 1008.5
20260507100052 25 272 0.0 0.0 0.00 0.00 0.00 88 1008.3
20260507094540 25 265 0.0 0.0 0.00 0.00 0.00 88 1008.2
20260507093039 25 266 0.0 0.0 0.00 0.00 0.00 88 1008.3
20260507091540 26 266 0.0 0.0 0.00 0.00 0.00 88 1008.3
20260507090006 26 266 0.0 0.0 0.00 0.00 0.00 88 1008.4
20260507084502 26 277 0.0 6.4 0.00 0.00 0.00 88 1008.4
20260507083058 26 240 0.0 0.0 0.00 0.00 0.00 88 1008.6
20260507081556 26 237 0.0 0.0 0.00 0.00 0.00 87 1008.7
20260507080056 27 236 1.6 9.7 0.00 0.00 0.00 87 1008.9
20260507074554 27 273 1.6 9.7 0.00 0.00 0.00 86 1009.0
20260507073025 27 281 0.0 8.0 0.00 0.00 0.00 86 1009.2
20260507071522 27 279 0.0 0.0 0.00 0.00 0.00 86 1009.2
20260507070023 27 311 4.8 12.9 0.00 0.00 0.00 87 1009.3
20260507064518 27 265 0.0 9.7 0.00 0.00 0.00 87 1009.6
20260507063018 27 289 6.4 11.3 0.00 0.00 0.00 88 1009.6
20260507061518 27 272 1.6 9.7 0.00 0.00 0.00 88 1009.8
20260507060017 27 270 3.2 14.5 0.00 0.00 0.00 88 1009.7
20260507054513 27 288 8.0 17.7 0.00 0.00 0.00 87 1009.8
20260507053010 27 261 3.2 12.9 0.00 0.00 0.00 85 1009.9
20260507051509 27 286 3.2 11.3 0.00 0.00 0.00 84 1010.0
20260507050020 27 273 1.6 8.0 0.00 0.00 0.00 84 1010.1
20260507044504 27 261 6.4 12.9 0.00 0.00 0.00 84 1010.0
20260507043003 27 219 3.2 12.9 0.00 0.00 0.00 82 1009.9
20260507041501 27 265 4.8 12.9 0.00 0.00 0.00 80 1010.0
20260507040103 27 272 1.6 9.7 0.00 0.00 0.00 78 1010.1
20260507034559 28 237 1.6 9.7 0.00 0.00 0.00 76 1009.9
20260507033053 28 288 3.2 11.3 0.00 0.00 0.00 74 1009.9
20260507031554 28 286 3.2 9.7 0.00 0.00 0.00 74 1009.8
20260507030047 28 250 3.2 11.3 0.00 0.00 0.00 73 1009.8
20260507024548 28 267 4.8 9.7 0.00 0.00 0.00 73 1009.7
20260507023042 28 229 3.2 8.0 0.00 0.00 0.00 73 1009.4
20260507021553 29 241 4.8 9.7 0.00 0.00 0.00 72 1009.3
20260507020034 28 227 4.8 14.5 0.00 0.00 0.00 71 1009.0
20260507014532 29 209 1.6 12.9 0.00 0.00 0.00 75 1008.8
20260507013034 30 206 8.0 12.9 0.00 0.00 0.00 75 1008.6
20260507011530 30 245 3.2 9.7 0.00 0.00 0.00 73 1008.4
20260507010029 30 198 3.2 9.7 0.00 0.00 0.00 72 1008.3
20260507004520 30 213 8.0 16.1 0.00 0.00 0.00 71 1008.1
20260507003015 31 200 11.3 17.7 0.00 0.00 0.00 68 1007.9
20260507001515 31 219 11.3 17.7 0.00 0.00 0.00 67 1007.8
20260507000012 31 222 12.9 29.0 0.00 0.00 0.00 66 1007.8
20260506234512 31 206 11.3 33.8 0.00 0.00 0.00 64 1007.7
20260506233009 32 248 16.1 32.2 0.00 0.00 0.00 63 1007.6
20260506231509 32 231 19.3 37.0 0.00 0.00 0.00 61 1007.6
20260506230006 32 190 16.1 37.0 0.00 0.00 0.00 59 1007.5
20260506224506 32 197 20.9 40.2 0.00 0.00 0.00 58 1007.4
20260506223007 32 189 22.5 41.8 0.00 0.00 0.00 57 1007.2
20260506221505 33 163 27.4 45.1 0.00 0.00 0.00 55 1007.1
20260506220036 33 194 25.7 41.8 0.00 0.00 0.00 53 1007.0
20260506214533 33 166 25.7 43.5 0.00 0.00 0.00 52 1007.1
20260506213032 33 188 27.4 40.2 0.00 0.00 0.00 52 1007.0
20260506211530 34 183 22.5 40.2 0.00 0.00 0.00 51 1007.1
20260506210034 34 186 27.4 41.8 0.00 0.00 0.00 46 1007.1
20260506204545 35 236 20.9 35.4 0.00 0.00 0.00 43 1007.4
20260506203030 35 360 27.4 49.9 0.00 0.00 0.00 44 1007.3
20260506201529 35 166 25.7 46.7 0.00 0.00 0.00 44 1007.5
20260506200025 35 360 20.9 40.2 0.00 0.00 0.00 45 1007.7
20260506200023 35 169 20.9 40.2 0.00 0.00 0.00 45 1007.7
20260506194522 35 360 16.1 35.4 0.00 0.00 0.00 46 1007.7
20260506193020 35 234 19.3 45.1 0.00 0.00 0.00 47 1007.8
20260506191518 35 226 17.7 38.6 0.00 0.00 0.00 45 1008.0